Weather History for Halmstad, Sweden

Change the Weather History Date:

Friday, April 25, 2014

  Actual Average Record
Temperature  
Mean Temperature 56 °F -  
Max Temperature 68 °F - - ()
Min Temperature 44 °F - - ()
Degree Days  
Heating Degree Days 9    
Growing Degree Days 6 (Base 50)    
Moisture  
Dew Point 21 °F    
Average Humidity 27    
Maximum Humidity 39    
Minimum Humidity 14    
Precipitation  
Precipitation 0.00 in - - ()
Sea Level Pressure  
Sea Level Pressure 30.17 in    
Wind  
Wind Speed 9 mph ()    
Max Wind Speed 12 mph    
Max Gust Speed -    
Visibility 6.2 miles    
Events      
T = Trace of Precipitation, MM = Missing Value Source: Averaged Metar Reports

Daily Weather History Graph

Daily Weather History Graph

Search for Another Location

Airport:

Trip Planner

Search our weather history database for the weather conditions in past years. The results will help you decide how hot, cold, wet, or windy it might be!

Date:

Astronomy

Apr. 25, 2014 Rise Set
Actual Time 5:36 AM CEST 8:38 PM CEST
Civil Twilight 4:53 AM CEST 9:22 PM CEST
Nautical Twilight 3:54 AM CEST 10:21 PM CEST
Astronomical Twilight 2:31 AM CEST 11:47 PM CEST
Moon 4:05 AM CEST 3:55 PM CEST
Length of Visible Light 16h 28m
Length of Day
15h 01m
Waning Crescent, 17% of the Moon is Illuminated
Apr 25
Waning Crescent
Apr 29
New
May 7
First Quarter
May 14
Full
May 21
Last Quarter

Hourly Weather History & Observations

Time (CEST) Temp. Windchill Dew Point Humidity Pressure Visibility Wind Dir Wind Speed Gust Speed Precip Events Conditions
12:20 AM 50.0 °F - 17.6 °F 28% 30.27 in 6.2 mi ENE 10.4 mph - N/A   Scattered Clouds
12:50 AM 50.0 °F - 17.6 °F 28% 30.24 in 6.2 mi ENE 11.5 mph - N/A   Mostly Cloudy
1:20 AM 48.2 °F - 17.6 °F 30% 30.24 in 6.2 mi ENE 10.4 mph - N/A   Mostly Cloudy
1:50 AM 48.2 °F - 17.6 °F 30% 30.24 in 6.2 mi ENE 10.4 mph - N/A   Mostly Cloudy
2:20 AM 46.4 °F 41.1 °F 17.6 °F 32% 30.24 in 6.2 mi ENE 11.5 mph - N/A   Scattered Clouds
2:50 AM 46.4 °F 41.1 °F 17.6 °F 32% 30.24 in 6.2 mi ENE 11.5 mph - N/A   Mostly Cloudy
3:20 AM 46.4 °F 41.5 °F 17.6 °F 32% 30.24 in 6.2 mi ENE 10.4 mph - N/A   Mostly Cloudy
3:50 AM 46.4 °F 42.9 °F 17.6 °F 32% 30.24 in 6.2 mi ENE 6.9 mph - N/A   Scattered Clouds
4:20 AM 46.4 °F 43.5 °F 17.6 °F 32% 30.24 in 6.2 mi NE 5.8 mph - N/A   Mostly Cloudy
4:50 AM 44.6 °F 40.2 °F 17.6 °F 34% 30.21 in 6.2 mi NE 8.1 mph - N/A   Overcast
5:20 AM 44.6 °F 39.7 °F 17.6 °F 34% 30.21 in 6.2 mi NE 9.2 mph - N/A   Mostly Cloudy
5:50 AM 44.6 °F 39.7 °F 17.6 °F 34% 30.21 in 6.2 mi NE 9.2 mph - N/A   Mostly Cloudy
6:20 AM 44.6 °F 38.8 °F 19.4 °F 37% 30.18 in - NE 11.5 mph - N/A   Clear
6:50 AM 44.6 °F 40.7 °F 21.2 °F 39% 30.21 in - ENE 6.9 mph - N/A   Clear
7:20 AM 46.4 °F 41.1 °F 21.2 °F 37% 30.18 in - ENE 11.5 mph - N/A   Clear
7:50 AM 48.2 °F - 21.2 °F 34% 30.18 in - ENE 8.1 mph - N/A   Clear
8:20 AM 48.2 °F - 21.2 °F 34% 30.18 in - ENE 10.4 mph - N/A   Clear
8:50 AM 50.0 °F - 21.2 °F 32% 30.18 in - ENE 10.4 mph - N/A   Clear
9:20 AM 53.6 °F - 21.2 °F 28% 30.18 in - ENE 9.2 mph - N/A   Clear
9:50 AM 55.4 °F - 23.0 °F 29% 30.18 in - East 8.1 mph - N/A   Clear
10:20 AM 57.2 °F - 21.2 °F 25% 30.18 in - East 9.2 mph - N/A   Clear
10:50 AM 59.0 °F - 21.2 °F 23% 30.18 in 6.2 mi East 8.1 mph - N/A   Partly Cloudy
11:20 AM 60.8 °F - 19.4 °F 20% 30.15 in 6.2 mi East 11.5 mph - N/A   Partly Cloudy
11:50 AM 62.6 °F - 17.6 °F 18% 30.15 in 6.2 mi East 10.4 mph - N/A   Partly Cloudy
12:20 PM 62.6 °F - 17.6 °F 18% 30.15 in 6.2 mi East 8.1 mph - N/A   Partly Cloudy
12:50 PM 64.4 °F - 17.6 °F 16% 30.12 in 6.2 mi East 6.9 mph - N/A   Partly Cloudy
1:20 PM 66.2 °F - 19.4 °F 17% 30.12 in 6.2 mi ENE 9.2 mph - N/A   Partly Cloudy
1:50 PM 66.2 °F - 17.6 °F 15% 30.12 in 6.2 mi East 10.4 mph - N/A   Partly Cloudy
2:20 PM 66.2 °F - 15.8 °F 14% 30.12 in - ENE 6.9 mph - N/A   Clear
2:50 PM 66.2 °F - 21.2 °F 18% 30.12 in - East 8.1 mph - N/A   Clear
3:20 PM 68.0 °F - 17.6 °F 15% 30.09 in - ENE 4.6 mph - N/A   Clear
3:50 PM 68.0 °F - 19.4 °F 16% 30.09 in - SE 8.1 mph - N/A   Clear
4:20 PM 68.0 °F - 26.6 °F 21% 30.09 in - SE 4.6 mph - N/A   Clear
4:50 PM 68.0 °F - 26.6 °F 21% 30.09 in - SSE 8.1 mph - N/A   Clear
5:20 PM 66.2 °F - 30.2 °F 26% 30.09 in - South 9.2 mph - N/A   Clear
5:50 PM 64.4 °F - 30.2 °F 28% 30.09 in - South 11.5 mph - N/A   Clear
6:20 PM 62.6 °F - 30.2 °F 30% 30.09 in - South 10.4 mph - N/A   Clear
6:50 PM 62.6 °F - 30.2 °F 30% 30.09 in - South 9.2 mph - N/A   Clear
7:20 PM 60.8 °F - 28.4 °F 29% 30.09 in - SSW 4.6 mph - N/A   Clear